Weather in Zyuzya

Russia / Novosibirsk Oblast     55°05′30″N   77°51′10″E
temp.,
°C
wind,
m/s
gust,
m/s
humid.,
%
clouds,
%
prec.,
mm/h
press.,
hPa
HPBL,
m
1 march, mon
mon101:00−12e81194100 0.5 1015314
04:00−11e71194100 1.1 1011291
07:00−12ene699497 1.6 1009170
10:00−11ne689499 0.1 1008254
13:00−10ne6893100 0.4 1008307
16:00−9ne6893100 0.3 1008320
19:00−10nne5894100 0.7 1009252
22:00−12nne5794100 0.4 1010194
2 march, tue
tue201:00−16n459693 0.4 101222
04:00−18nnw349878 0.0 101320
07:00−20nnw3310077 0.1 101520
10:00−20nw2310067 0.0 101620
13:00−17w129268 0.0 1016189
16:00−14sw238995 0.0 1016296
19:00−14sw229598 0.1 101653
22:00−15ssw129592 0.1 101620
3 march, wed
wed301:00−15ssw239692 0.1 101520
04:00−15wsw2296100 0.1 101521
07:00−15ssw229695 0.3 101620
10:00−14ssw359491 0.1 1016175
13:00−13ssw569293 0.1 1017343
16:00−11ssw6891100 0.0 1017429
19:00−14s71094100 0.1 1017194
22:00−15s7119599 0.1 1016234
4 march, thu
thu401:00−12s8139499 0.5 1015354
04:00−9ssw91494100 0.8 1013449
07:00−8ssw91493100 1.4 1012413
10:00−7s91491100 0.1 1011436
13:00−4ssw111590100 0.3 1010692
16:00−2ssw111591100 0.3 1009809
19:00−2ssw101596100 0.9 1008590
22:00−2ssw101596100 1.1 1007535
5 march, fri
fri501:00−2ssw101695100 1.4 1006496
04:00−2ssw91395100 0.3 1004443
07:00−3ssw81396100 0.8 1004345
10:00−3w8129598 0.6 1006469
13:00−6w9138591 0.6 1010546
16:00−7wsw812849 0.0 1014473
19:00−8ssw9158538 0.0 1015423
22:00−7ssw121988100 0.1 1013731